DAAS

Ain Arnat Airport

Airport
ICAO code
DAAS
IATA Code
QSF
Summary
ICAO Region
AFI
ICAO Territory
Location

, Setif

Serving
Setif
Elevation
3360 ft
Coordinates
36° 10' 41" N , 5° 19' 28" E
Metar
DAAS 251400Z 34005KT 9999 FEW030 29/04 Q1015

Airport map

Aerial View

SKYbrary Partners:

Safety knowledge contributed by: